Regional Weather Roundup
Issued by NWS Wakefield, VA

Home | Current Version | Previous Version | Graphics & Text | Print | Product List | Glossary On
Versions: 1 2 3 4 5 6 7 8 9 10 11 12 13 14 15 16 17 18 19 20 21 22 23 24 25 26 27 28 29 30 31 32 33 34 35 36 37 38 39 40 41 42 43 44 45 46 47 48 49 50
442
ASUS41 KAKQ 262216
RWRAKQ

REGIONAL WEATHER ROUNDUP
NATIONAL WEATHER SERVICE WAKEFIELD VA
600 PM EDT MON JUN 26 2017

Note: "fair" indicates few or no clouds below 12,000 feet with no
significant weather and/or obstructions to visibility. * = Denotes
station may not report precipitation (e.g., rain,snow,etc.),
thunder or fog.

VAZ042-051-052>054-056-262300-
NORTHERN VIRGINIA

CITY           SKY/WX    TMP DP  RH WIND       PRES   REMARKS
WASH NATIONAL  PTSUNNY   83  49  30 S10       30.00F
DULLES         MOSUNNY   80  46  30 SW8       29.99F
FORT BELVOIR   MOSUNNY   82  49  31 SE6       29.99F
QUANTICO       MOSUNNY   82  54  37 S9        30.00F
FREDERICKSBRG* MOSUNNY   83  53  35 SW3       29.99F
STAFFORD*      SUNNY     81  49  32 SW3       30.04F
WARRENTON      MOSUNNY   81  44  27 SW3       30.00F
CULPEPER*      SUNNY     82  51  33 SW9       30.00F
MANASSAS*      SUNNY     81  50  33 SW8       30.00F
LEESBURG*      MOSUNNY   82  52  34 S10       30.01F
WINCHESTER     MOSUNNY   77  48  36 SE5       30.00F
FRONT ROYAL*   MOCLDY    79  52  38 SE5       30.00F
LURAY*         PTCLDY    79  48  34 SW7       30.01S
$$

VAZ048-049-060>072-079>083-262300-
CENTRAL AND SOUTH CENTRAL VIRGINIA

CITY           SKY/WX    TMP DP  RH WIND       PRES   REMARKS
RICHMOND       MOSUNNY   82  52  35 SW12      30.00F
CHESTERFIELD*  FAIR      82  54  37 S7        30.02F
PETERSBURG*    PTSUNNY   81  50  34 CALM      30.03S
HANOVER        SUNNY     82  50  32 W7        30.02F
TAPPAHANNOCK*  SUNNY     83  44  25 CALM      30.02S
QUINTON*       FAIR      82  56  41 W6        30.00F
CHARLOTTSVILLE SUNNY     81  50  33 S9        30.00F
GORDONSVILLE*  CLEAR     81  47  30 S3        30.00F
ORANGE*        SUNNY     81  48  32 W8        30.00F
LOUISA*        MOSUNNY   84  54  34 SW5       30.00F
BUMPASS*       FAIR      81  52  37 S6        30.02S
FARMVILLE*     SUNNY     82  32  16 W5        30.01F
CREWE*         FAIR      81  39  22 SW5       30.02F
FORT PICKETT*  FAIR      79  40  25 W8        30.03F
CHASE CITY*    FAIR      80  52  37 CALM      30.04F
CLARKSVILLE*   FAIR      81  50  34 CALM      30.03F
SOUTH HILL*    SUNNY     81  53  37 W5        30.09F
LAWRENCEVILLE* FAIR      81  52  36 W6        30.03F
EMPORIA*       MOSUNNY   81  54  39 SW3       30.04S
$$

VAZ088>098-262300-
SOUTHEAST VIRGINIA

CITY           SKY/WX    TMP DP  RH WIND       PRES   REMARKS
NORFOLK        CLOUDY    82  54  37 SE7       30.02F
VIRGINIA BEACH PTSUNNY   77  60  55 SE8       30.02F
NORFOLK NAVAL  PTSUNNY   82  54  37 E10       30.03F
WEST POINT*    MOSUNNY   82  51  33 S8        30.03S
SALUDA*        FAIR      82  59  45 W3        30.00F
NEWPORT NEWS   SUNNY     82  54  37 S7        30.01F
LANGLEY AFB    SUNNY     81  57  43 SE12      30.01F
FORT EUSTIS    MOSUNNY   86  57  37 S5        29.99F
WILLIAMSBURG*  MOSUNNY   84  57  39 CALM      30.02F
HR EXEC AP*    FAIR      82  61  47 S8          N/A
FRANKLIN*      MOSUNNY   82  54  36 SW6       30.02F
US460-WAKEFLD  PTSUNNY   82  55  39 VRB5      30.01F
$$

VAZ020-022-025-037-045-262300-
WEST CENTRAL AND SOUTHWEST VIRGINIA

CITY           SKY/WX    TMP DP  RH WIND       PRES   REMARKS
STAUNTON*      MOSUNNY   78  45  31 SW10      30.03F
WAYNESBORO*    PTCLDY    77  51  39 SW8       30.03F
HOT SPRINGS VA MOSUNNY   68  27  21 W9G16     30.14F
LYNCHBURG      SUNNY     79  50  36 SW5       30.04F
DANVILLE       SUNNY     80  53  39 SW8       30.04F
SOUTH BOSTON*  FAIR      80  50  35 SW5       30.04F
MARTINSVILLE   SUNNY     81  53  38 CALM      30.07F
ROANOKE        MOSUNNY   81  48  31 W12G17    30.05F
BLACKSBURG     SUNNY     74  46  37 W6        30.12F
DUBLIN*        SUNNY     77  36  22 NW6       30.10F
MARION*        PTSUNNY   72  49  45 W10       30.14F
HILLSVILLE*    CLOUDY    72  42  33 W9        30.11F
RICHLANDS*     FAIR      72  11   9 NW8       30.12F
WISE*          SUNNY     72  45  37 CALM      30.15F
ABINGDON*      CLOUDY    76  53  46 W10G16    30.11F
$$

MDZ021>025-VAZ099-100-262300-
SOUTHERN MARYLAND AND THE DELMARVA PENINSULA

CITY           SKY/WX    TMP DP  RH WIND       PRES   REMARKS
PATUXENT RIVER MOSUNNY   80  54  40 S7        30.00F
BAY BRIDGE APT PTSUNNY   81  48  32 NW3       30.01F
LEONARDTOWN    MOSUNNY   79  52  38 S3        30.03F
DOVER          SUNNY     80  53  38 W8        30.00F
GEORGETOWN     PTSUNNY   82  49  31 W8        30.02S
EASTON         MOSUNNY   82  46  28 W5        30.05F
CAMBRIDGE      MOSUNNY   81  52  36 W6G13     30.01F
SALISBURY      SUNNY     81  51  35 W9        30.02S
OCEAN CITY     SUNNY     75  60  59 SW9       30.03F
WALLOPS ISLAND SUNNY     78  57  48 S13       30.03F
ACCOMACK*      MOSUNNY   80  57  46 SE9       30.02F
$$

NCZ012>017-030>032-262300-
NORTH CENTRAL AND EASTERN NORTH CAROLINA

CITY           SKY/WX    TMP DP  RH WIND       PRES   REMARKS
ROANOKE RAPIDS FAIR      81  55  41 SW8       30.03F
RALEIGH        MOSUNNY   83  53  35 VRB7      30.04F
ELIZABETH CITY SUNNY     80  57  45 SE12      30.03F
AHOSKIE*         N/A     80  59  50 CALM      30.03F
EDENTON*       SUNNY     83  60  45 CALM      30.03F
CURRITUCK*     SUNNY     80  53  40 SE5       30.04F
KILL DEVIL HLS SUNNY     77  60  54 E5        30.03F
MANTEO         SUNNY     78  56  45 E8        30.04F
CAPE HATTERAS  NOT AVBL
TARBORO*       NOT AVBL
GOLDSBORO      SUNNY     85  53  33 W8        30.01F
WASHINGTON     SUNNY    N/A N/A N/A CALM      30.02F
GREENVILLE     SUNNY     86  54  32 W3        30.04F
NEW BERN       SUNNY     81  61  50 SE7       30.03F
WILMINGTON     SUNNY     83  62  49 E5        30.02F
$$

VAZ048-262300-
ELSEWHERE

CITY           SKY/WX    TMP DP  RH WIND       PRES   REMARKS
HARRISBURG PA  MOSUNNY   78  49  35 VRB6      29.97F
BALTIMORE      MOSUNNY   82  47  29 S7        29.99F
ANNAPOLIS      MOSUNNY   76  48  37 VRB6      30.00F
ANDREWS AFB    SUNNY     81  47  29 SW6       30.00F
PHILADELPHIA   MOSUNNY   80  45  28 W10       30.00F
HENDERSON NC   MOSUNNY   78  52  40 W5        30.05F
GREENSBORO     PTSUNNY   78  54  43 CALM      30.05F
ROCKY MOUNT    SUNNY     83  52  34 CALM      30.03F
$$

VAZ100-262300-
MARINE

STATION/POSITION TIME  TEMP    WIND        PRES    WAVE   SWELL
                       AIR SEA DIR/SP/G            HT/PER HT/PER
                 (UTC) (F)     (DEG/KT/KT) (MB)    (FT/S) (FT/S)
BRANDYWINE LGT   2148          160/ 11/ 12 1016.7F
CAPE MAY NJ      2148   74 73  150/  7/ 10 1016.3F
LEWES DE         2148          180/  3/  5 1016.3F
15NM E FENWICK I 2150   72 69  170/  8/ 10 1017.2F   2/ 6   2/ 6
OCEAN-CITY-INLET 2148   73 73  190/  5/  8 1017.1F
WACHAPREAGUE VA  2148   77 85  140/ 10/ 13 1016.5F
THOMAS POINT MD  2200   78 78  170/ 10/ 11   N/A
GOOSES REEF MD   2200   80 80  240/  4/  6 1017.0
COVE POINT MD    2148   77     170/ 11/ 13 1016.9F
SOLOMONS ISLAND  2148           80/  7/  8   N/A
BISHOPS HEAD MD  2148   79 83  200/  7/  9 1016.7F
PINEY POINT MD   2148          160/ 10/ 10   N/A
POTOMAC MD       2200   78 81  150/  8/ 10 1015.4    0
CAMBRIDGE MD     2148   82 83              1017.0F
LEWISETTA VA     2148   78 81  130/  8/ 11 1016.2F
RAPPAHANNOCK LGT 2148          160/  9/ 11 1017.0F
STINGRAY PT      2150   80     210/ 12/ 16 1016.7F
YORK RVR RNG VA  2148   77     150/ 14/ 15 1016.7F
YORKTOWN VA      2148   79 80  110/ 12/ 14 1015.9F
JAMESTOWN VA     2200   81 84  170/  6/  8   N/A     0
DOMINION TERM VA 2148   80     130/ 10/ 12 1016.4F
KIPTOPEKE VA     2148          170/ 13/ 15   N/A
CHES BAY BRIDGE  2148   78 78  150/  8/ 12 1016.5F
CAPE HENRY VA    2148   75     140/ 10/ 13   N/A
WILLOUBY STN VA  2148   79     110/ 10/ 11 1016.3F
S CRANEY ISL VA  2148   79     130/  9/ 12 1016.1F
CAPE HENRY BUOY  2200      73                N/A     1/ 8
1ST LANDING BUOY 2200   77 77              1016.5    1/ 3
CAPE CHARLES BUO 2151      73                N/A     1/ 8
64NM E OF VA BCH 2150   75 76   50/  2/  2 1017.7F   2/ 8   2/ 8
DUCK PIER NC     2148   78 74  120/  5/  7 1016.7F
44100 DUCK FRF   2105      74                N/A     2/ 8
OREGON INLET NC  2136   75 73   40/  6/  8 1017.1F
HATTERAS NC      2148          120/  6/  8 1016.6F
DIAMOND SHLS NC  2150   79 81  320/  2/  4 1016.7F   2/ 8   2/ 8
CAPE LOOKOUT NC  2200   78     110/  6/  7 1016.1F
$$




USA.gov is the U.S. government's official web portal to all federal, state and local government web resources and services.